QPF
0.00 0.00 0.00 0.00 0.00 0.00 0.00 0.00 0.00 0.00 0.00 0.00 0.00 0.00 0.00 0.00 0.00 0.00 0.00 0.00 0.00 0.00 0.00 0.00 0.00 0.00 0.00 0.00 0.00 0.00 0.00 0.00 0.00 0.00 0.00 0.00 0.00 0.00 0.00 0.00 0.00 0.00 0.00 0.00
0.00 0.00 0.00 0.00 0.00 0.00 0.00 0.00 0.00 0.00 0.00 0.00 0.00 0.00 0.00 0.00 0.00 0.00 0.00 0.00 0.00 0.00 0.00 0.00 0.00 0.00 0.00 0.00 0.00 0.00 0.00 0.00 0.00 0.00 0.00 0.00 0.00 0.00 0.00 0.00 0.00 0.00 0.00 0.00
0.00 0.00 0.00 0.00 0.00 0.00 0.00 0.00 0.00 0.00 0.00 0.00 0.00 0.00 0.00 0.00 0.00 0.00 0.00 0.00 0.00 0.00 0.00 0.00 0.00 0.00 0.00 0.00 0.00 0.00 0.00 0.00 0.00 0.00 0.00 0.00 0.00 0.00 0.00 0.00 0.00 0.00 0.00 0.00
0.00 0.00 0.00 0.00 0.00 0.00 0.00 0.00 0.00 0.00 0.00 0.00 0.00 0.00 0.00 0.00 0.00 0.00 0.00 0.00 0.00 0.00 0.00 0.00 0.00 0.00 0.00 0.00 0.00 0.00 0.00 0.00 0.00 0.00 0.00 0.01 0.01 0.00 0.00 0.00 0.00 0.00 0.00 0.00
0.00 0.00 0.00 0.00 0.00 0.00 0.00 0.00 0.00 0.00 0.00 0.00 0.00 0.00 0.00 0.00 0.00 0.00 0.00 0.00 0.00 0.00 0.00 0.00 0.00 0.00 0.00 0.00 0.00 0.00 0.00 0.00 0.00 0.00 0.00 0.01 0.04 0.01 0.00 0.00 0.00 0.00 0.00 0.00
0.00 0.00 0.00 0.00 0.00 0.00 0.00 0.00 0.00 0.00 0.00 0.00 0.00 0.00 0.00 0.00 0.00 0.00 0.00 0.00 0.00 0.00 0.00 0.00 0.00 0.00 0.00 0.00 0.00 0.00 0.00 0.00 0.00 0.00 0.00 0.02 0.06 0.05 0.03 0.02 0.01 0.00 0.00 0.00
0.00 0.00 0.00 0.00 0.00 0.00 0.00 0.00 0.00 0.00 0.00 0.00 0.00 0.00 0.00 0.00 0.00 0.00 0.00 0.00 0.00 0.00 0.00 0.00 0.00 0.00 0.00 0.00 0.00 0.00 0.00 0.00 0.00 0.00 0.00 0.02 0.04 0.07 0.07 0.13 0.05 0.01 0.00 0.00
0.00 0.00 0.00 0.00 0.00 0.00 0.00 0.00 0.00 0.00 0.00 0.00 0.00 0.00 0.00 0.00 0.00 0.00 0.00 0.00 0.00 0.00 0.00 0.00 0.00 0.00 0.00 0.00 0.00 0.00 0.00 0.00 0.00 0.00 0.01 0.03 0.07 0.11 0.10 0.08 0.03 0.00 0.00 0.00
0.00 0.00 0.00 0.00 0.00 0.00 0.00 0.00 0.00 0.00 0.00 0.00 0.00 0.00 0.00 0.00 0.00 0.00 0.00 0.00 0.00 0.00 0.00 0.00 0.00 0.00 0.00 0.00 0.00 0.00 0.00 0.00 0.00 0.00 0.07 0.16 0.23 0.23 0.17 0.15 0.13 0.02 0.00 0.00
0.00 0.00 0.00 0.00 0.00 0.00 0.00 0.00 0.00 0.00 0.00 0.00 0.00 0.00 0.00 0.00 0.00 0.00 0.00 0.00 0.00 0.00 0.00 0.00 0.00 0.00 0.00 0.00 0.00 0.00 0.00 0.00 0.00 0.00 0.00 0.07 0.15 0.26 0.31 0.25 0.20 0.07 0.00 0.00
0.00 0.00 0.00 0.00 0.00 0.00 0.00 0.00 0.00 0.00 0.00 0.00 0.00 0.00 0.00 0.00 0.00 0.00 0.00 0.00 0.00 0.00 0.00 0.00 0.00 0.00 0.00 0.00 0.00 0.00 0.00 0.00 0.00 0.00 0.00 0.00 0.01 0.07 0.10 0.15 0.23 0.14 0.01 0.00
0.00 0.00 0.00 0.00 0.00 0.00 0.00 0.00 0.00 0.00 0.00 0.00 0.00 0.00 0.00 0.00 0.00 0.00 0.00 0.00 0.00 0.00 0.00 0.00 0.00 0.00 0.00 0.00 0.00 0.00 0.00 0.00 0.00 0.00 0.00 0.00 0.00 0.00 0.00 0.02 0.03 0.01 0.00 0.00
0.00 0.00 0.00 0.00 0.00 0.00 0.00 0.00 0.00 0.00 0.00 0.00 0.01 0.00 0.00 0.00 0.00 0.00 0.00 0.00 0.00 0.00 0.00 0.00 0.00 0.00 0.00 0.00 0.00 0.00 0.00 0.00 0.00 0.00 0.00 0.00 0.00 0.00 0.00 0.00 0.00 0.00 0.00 0.00
0.00 0.00 0.00 0.00 0.00 0.00 0.00 0.00 0.00 0.00 0.00 0.00 0.00 0.00 0.00 0.00 0.00 0.00 0.00 0.00 0.00 0.00 0.00 0.00 0.00 0.00 0.00 0.00 0.00 0.00 0.00 0.00 0.00 0.00 0.00 0.00 0.00 0.00 0.00 0.00 0.00 0.00 0.00 0.00
0.00 0.01 0.00 0.00 0.00 0.00 0.00 0.00 0.00 0.00 0.00 0.00 0.00 0.00 0.00 0.00 0.00 0.00 0.00 0.00 0.00 0.00 0.00 0.00 0.00 0.00 0.00 0.00 0.00 0.00 0.00 0.00 0.00 0.00 0.00 0.00 0.00 0.00 0.00 0.00 0.00 0.00 0.00 0.00
0.00 0.01 0.00 0.00 0.00 0.00 0.00 0.00 0.00 0.00 0.00 0.00 0.00 0.00 0.00 0.00 0.00 0.00 0.00 0.00 0.00 0.00 0.00 0.00 0.00 0.00 0.00 0.00 0.00 0.00 0.00 0.00 0.00 0.00 0.00 0.00 0.00 0.00 0.00 0.00 0.00 0.00 0.00 0.00
0.01 0.01 0.01 0.00 0.00 0.00 0.00 0.00 0.00 0.00 0.00 0.00 0.00 0.00 0.00 0.00 0.00 0.00 0.00 0.00 0.00 0.00 0.00 0.00 0.00 0.00 0.00 0.00 0.00 0.00 0.00 0.00 0.00 0.00 0.00 0.00 0.00 0.00 0.00 0.00 0.00 0.00 0.01 0.01
0.01 0.01 0.01 0.01 0.00 0.00 0.00 0.00 0.00 0.00 0.00 0.00 0.00 0.00 0.00 0.00 0.00 0.00 0.00 0.00 0.00 0.00 0.00 0.00 0.00 0.00 0.00 0.00 0.00 0.00 0.00 0.00 0.00 0.00 0.00 0.00 0.00 0.00 0.00 0.00 0.00 0.00 0.03 0.07
0.00 0.00 0.00 0.00 0.00 0.00 0.00 0.00 0.00 0.00 0.00 0.00 0.00 0.00 0.00 0.00 0.00 0.00 0.00 0.00 0.00 0.00 0.00 0.01 0.01 0.01 0.01 0.01 0.01 0.01 0.01 0.00 0.00 0.00 0.00 0.00 0.00 0.00 0.00 0.00 0.00 0.00 0.00 0.05
0.00 0.00 0.01 0.01 0.03 0.01 0.02 0.00 0.00 0.00 0.00 0.00 0.00 0.00 0.00 0.00 0.00 0.00 0.00 0.00 0.00 0.01 0.01 0.01 0.01 0.01 0.01 0.01 0.02 0.02 0.01 0.01 0.01 0.00 0.00 0.00 0.00 0.00 0.00 0.00 0.00 0.00 0.00 0.01
0.00 0.00 0.00 0.01 0.03 0.02 0.02 0.00 0.00 0.01 0.02 0.00 0.00 0.00 0.00 0.00 0.00 0.00 0.00 0.00 0.00 0.01 0.01 0.01 0.01 0.01 0.01 0.02 0.02 0.01 0.01 0.01 0.00 0.00 0.00 0.00 0.00 0.00 0.00 0.00 0.01 0.00 0.00 0.00
0.03 0.03 0.02 0.03 0.05 0.04 0.01 0.00 0.01 0.01 0.00 0.00 0.00 0.00 0.00 0.00 0.00 0.00 0.00 0.00 0.00 0.01 0.01 0.01 0.01 0.01 0.01 0.01 0.01 0.01 0.00 0.00 0.01 0.01 0.00 0.00 0.00 0.00 0.00 0.00 0.01 0.02 0.01 0.01
0.06 0.07 0.07 0.06 0.06 0.05 0.01 0.00 0.00 0.00 0.00 0.00 0.00 0.00 0.00 0.00 0.00 0.00 0.00 0.00 0.00 0.01 0.01 0.01 0.01 0.00 0.00 0.00 0.01 0.01 0.00 0.00 0.00 0.01 0.01 0.01 0.01 0.00 0.00 0.00 0.01 0.01 0.02 0.02
0.02 0.01 0.03 0.02 0.01 0.01 0.00 0.00 0.00 0.00 0.00 0.00 0.00 0.00 0.00 0.00 0.00 0.00 0.00 0.00 0.00 0.00 0.00 0.00 0.00 0.00 0.00 0.00 0.00 0.00 0.00 0.00 0.00 0.00 0.00 0.00 0.01 0.01 0.00 0.00 0.00 0.01 0.01 0.01
0.00 0.01 0.02 0.02 0.02 0.01 0.01 0.00 0.00 0.00 0.00 0.00 0.00 0.00 0.00 0.00 0.00 0.00 0.00 0.00 0.00 0.00 0.00 0.00 0.00 0.00 0.00 0.00 0.00 0.00 0.01 0.00 0.01 0.01 0.01 0.00 0.00 0.01 0.01 0.00 0.00 0.00 0.01 0.01
0.00 0.00 0.01 0.03 0.04 0.02 0.01 0.00 0.00 0.00 0.00 0.00 0.00 0.00 0.00 0.00 0.00 0.00 0.00 0.00 0.00 0.00 0.00 0.00 0.00 0.00 0.00 0.00 0.00 0.00 0.00 0.00 0.01 0.01 0.01 0.01 0.01 0.01 0.01 0.01 0.00 0.00 0.00 0.00
MSLP
1004.18 1003.25 1002.06 1001.37 1001.37 1001.16 1001.07 1000.82 1000.41 1000.36 1000.90 1001.64 1001.58 1001.33 1000.99 1000.97 1000.83 1000.66 1000.58 1000.60 1000.63 1000.69 1000.88 1001.14 1001.51 1001.96 1002.31 1002.44 1002.93 1003.30 1003.45 1003.54 1003.04 1003.40 1003.80 1004.56 1004.48 1004.63 1004.82 1005.10 1005.13 1005.43 1006.16 1006.84
1003.30 1002.57 1001.81 1001.64 1001.93 1002.32 1002.37 1001.89 1001.46 1001.37 1001.54 1001.94 1001.75 1001.28 1001.04 1000.80 1000.44 1000.33 1000.38 1000.48 1000.57 1000.56 1000.62 1000.69 1000.95 1001.22 1001.54 1001.94 1002.22 1002.68 1003.06 1003.16 1003.05 1002.88 1002.93 1003.22 1003.64 1003.25 1003.67 1004.21 1004.55 1004.71 1005.24 1005.89
1002.47 1001.54 1002.27 1002.45 1002.55 1002.73 1002.47 1002.11 1001.61 1001.58 1001.74 1002.03 1001.74 1000.69 1000.01 999.59 999.41 999.56 1000.00 1000.49 1000.65 1000.76 1000.97 1001.07 1001.13 1001.25 1001.40 1001.57 1002.12 1002.24 1002.41 1002.65 1002.88 1002.62 1002.66 1002.94 1002.97 1003.01 1002.95 1003.36 1003.57 1004.34 1004.68 1005.25
1002.48 1001.98 1002.65 1002.65 1002.34 1002.48 1001.94 1001.75 1002.04 1002.28 1002.35 1001.22 1000.83 999.75 999.46 999.14 998.94 999.29 999.65 1000.02 1000.30 1000.68 1000.93 1001.16 1001.16 1001.19 1001.44 1001.88 1002.02 1002.18 1002.23 1002.37 1002.31 1002.50 1001.92 1001.85 1001.78 1001.79 1001.80 1002.21 1002.70 1003.32 1004.13 1004.59
1001.79 1002.06 1002.06 1002.34 1001.94 1002.09 1002.22 1002.31 1002.80 1002.79 1002.28 1001.66 1000.76 999.63 998.61 998.54 998.60 999.13 1000.04 1000.79 1001.31 1001.39 1001.50 1001.72 1001.97 1002.20 1002.31 1002.53 1002.48 1002.50 1002.29 1002.02 1001.84 1001.94 1001.66 1001.27 1001.57 1001.49 1001.35 1001.37 1001.99 1002.41 1002.90 1003.79
1002.24 1002.27 1002.51 1002.24 1002.33 1002.89 1003.23 1003.22 1002.97 1002.56 1001.87 1000.66 999.68 998.98 998.19 998.35 999.42 1000.44 1001.45 1001.97 1002.35 1002.49 1002.60 1002.57 1002.56 1002.45 1002.67 1002.74 1002.66 1002.71 1002.41 1001.89 1001.39 1001.20 1001.18 1001.02 1000.67 1001.04 1000.73 1000.85 1000.93 1001.26 1001.88 1002.74
1002.66 1002.20 1002.04 1002.39 1002.77 1002.63 1003.00 1003.11 1002.05 1001.25 1000.44 999.66 999.19 999.30 998.93 999.51 1000.67 1001.98 1002.70 1002.96 1002.96 1002.97 1002.97 1002.86 1002.67 1002.60 1002.83 1002.80 1002.72 1002.75 1002.10 1001.66 1001.14 1000.51 1000.39 1000.28 1000.53 1000.51 1000.56 1000.74 1000.98 1000.40 1000.48 1001.12
1003.28 1002.59 1002.31 1002.65 1003.23 1002.99 1002.58 1002.67 1002.48 1002.14 1001.48 1000.29 1000.00 999.60 999.23 1000.42 1001.36 1002.47 1002.90 1003.38 1003.41 1003.54 1003.47 1003.45 1003.26 1003.09 1002.86 1002.73 1002.66 1002.31 1001.89 1001.50 1001.10 1000.26 999.60 999.47 999.52 999.74 1000.06 1000.12 1000.37 999.65 998.60 999.40
1004.45 1004.23 1004.26 1004.35 1004.10 1004.18 1003.18 1003.43 1003.78 1003.88 1003.80 1002.94 1001.65 1000.14 999.58 1000.22 1001.26 1002.42 1002.68 1002.82 1003.30 1003.44 1003.47 1003.27 1003.15 1003.03 1002.86 1002.98 1002.56 1002.15 1001.67 1001.24 1000.83 1000.21 999.36 998.75 999.07 999.52 999.61 999.49 999.19 998.55 997.77 999.03
1005.72 1005.38 1004.45 1004.19 1004.98 1004.61 1004.77 1004.28 1004.55 1004.45 1004.48 1003.13 1001.18 1000.42 999.94 1000.55 1001.43 1001.92 1001.96 1002.52 1002.72 1002.64 1002.71 1002.85 1002.97 1002.84 1002.80 1002.77 1002.33 1002.02 1001.67 1001.06 1000.36 1000.00 999.31 998.45 998.34 998.70 998.91 998.41 998.25 997.21 993.38 996.35
1007.13 1006.92 1005.15 1004.99 1004.71 1004.30 1004.67 1004.68 1005.03 1005.27 1005.39 1004.82 1003.32 1001.39 1001.05 1001.65 1002.16 1002.19 1002.22 1002.20 1002.14 1002.22 1002.23 1002.45 1002.49 1002.36 1002.35 1002.16 1001.74 1001.70 1001.35 1001.20 1000.34 999.89 999.33 998.64 998.05 997.89 998.01 998.39 998.82 997.97 993.40 995.69
1007.01 1007.15 1005.86 1005.28 1004.74 1004.59 1004.53 1004.51 1004.48 1004.87 1005.07 1004.50 1003.81 1002.48 1001.94 1002.31 1002.07 1002.12 1001.67 1001.64 1001.83 1002.08 1002.27 1002.34 1002.21 1002.16 1002.03 1001.73 1001.58 1001.59 1001.53 1001.00 1000.59 1000.01 999.72 998.91 998.69 998.06 997.68 998.49 998.95 998.97 996.89 998.15
1007.99 1007.35 1006.47 1005.69 1005.25 1004.87 1005.00 1004.74 1004.79 1004.79 1005.05 1004.71 1003.97 1002.55 1001.68 1001.30 1001.12 1001.17 1001.21 1001.28 1001.79 1002.14 1002.04 1002.12 1002.03 1001.75 1001.64 1001.61 1001.55 1001.56 1001.37 1000.98 1000.62 1000.35 1000.00 999.67 999.24 998.84 998.24 998.16 998.52 998.14 998.15 998.67
1009.15 1007.94 1007.08 1005.89 1005.47 1005.38 1004.67 1004.45 1004.25 1004.09 1004.07 1003.68 1002.53 1001.47 1000.77 1000.62 1000.67 1000.90 1001.06 1001.48 1001.80 1001.74 1001.73 1001.83 1001.78 1001.61 1001.60 1001.59 1001.57 1001.47 1001.36 1001.12 1000.71 1000.33 1000.14 999.90 999.60 998.93 998.57 998.24 998.56 998.40 998.37 998.33
1009.51 1008.64 1007.70 1006.78 1005.91 1005.11 1004.22 1003.61 1003.48 1003.37 1003.11 1002.65 1001.87 1001.15 1000.85 1000.73 1000.72 1000.89 1001.20 1001.48 1001.71 1001.84 1001.97 1002.11 1002.12 1001.94 1001.62 1001.34 1001.23 1001.17 1001.03 1000.94 1000.81 1000.40 1000.17 1000.08 999.70 999.50 998.97 998.06 997.73 997.57 997.75 997.36
1009.85 1009.17 1008.48 1007.63 1006.32 1005.10 1003.83 1003.43 1003.25 1002.89 1002.58 1002.23 1001.83 1001.13 1000.88 1000.75 1001.40 1001.31 1001.89 1002.31 1002.43 1002.59 1002.70 1002.73 1002.59 1002.37 1002.16 1002.08 1001.96 1001.69 1001.42 1001.21 1000.74 1000.33 999.99 999.76 999.68 999.39 999.12 998.77 998.31 997.98 998.00 997.88
1010.26 1009.64 1008.81 1007.35 1006.42 1004.55 1003.32 1002.93 1002.42 1002.03 1001.96 1001.78 1001.27 1001.02 1001.35 1001.34 1001.88 1002.55 1002.96 1003.20 1003.20 1003.18 1003.13 1003.48 1003.88 1004.04 1003.93 1003.67 1003.47 1002.99 1002.55 1002.16 1001.47 1000.77 999.57 999.08 998.89 999.16 999.25 998.93 998.87 998.24 997.97 997.82
1010.69 1009.87 1009.27 1007.63 1006.35 1004.42 1002.79 1002.77 1003.07 1002.93 1002.86 1002.77 1002.40 1002.12 1002.28 1002.84 1003.28 1003.51 1003.72 1003.62 1003.90 1004.33 1004.58 1004.97 1005.16 1005.08 1004.87 1004.41 1003.89 1003.59 1002.98 1002.48 1001.48 1001.27 1000.35 999.08 998.08 997.64 998.62 998.98 999.12 998.82 998.24 998.41
1010.12 1009.91 1009.35 1007.63 1006.28 1004.55 1003.26 1003.86 1003.43 1003.59 1003.58 1003.51 1003.41 1003.92 1004.26 1004.30 1004.03 1003.54 1004.05 1004.90 1005.24 1005.48 1005.68 1005.57 1005.35 1005.02 1004.51 1004.06 1003.55 1002.91 1002.28 1001.58 1001.50 1000.73 999.88 999.32 998.39 997.58 996.89 997.95 998.72 999.22 998.47 998.67
1009.14 1008.92 1008.83 1007.85 1006.77 1004.89 1004.19 1004.61 1004.79 1004.67 1004.06 1004.93 1005.45 1005.28 1005.13 1005.04 1004.17 1003.68 1004.87 1005.30 1005.18 1005.73 1005.85 1005.48 1004.85 1004.25 1003.66 1003.10 1002.65 1001.88 1001.07 1000.60 999.98 999.91 999.56 998.91 998.52 997.69 997.63 997.09 997.57 998.34 998.30 998.70
1008.14 1008.24 1008.32 1007.76 1006.88 1005.44 1004.83 1004.92 1005.15 1004.98 1005.95 1005.99 1006.02 1005.84 1005.74 1005.77 1005.94 1005.45 1005.36 1004.96 1005.06 1005.53 1005.33 1004.95 1004.23 1003.37 1002.71 1002.30 1001.87 1000.90 1000.10 999.36 998.94 998.66 998.29 998.15 998.21 997.24 997.09 997.20 997.01 997.10 998.15 998.07
1007.80 1007.86 1007.54 1007.21 1006.74 1005.80 1005.35 1005.20 1005.55 1006.03 1006.31 1006.44 1006.25 1006.33 1006.30 1006.57 1006.21 1005.84 1005.00 1004.97 1005.08 1005.23 1004.77 1004.41 1003.48 1002.59 1001.92 1001.43 1000.81 999.92 999.07 998.47 998.08 997.69 997.53 997.38 997.23 997.27 997.18 996.66 996.58 996.44 996.30 996.85
1007.70 1007.49 1006.84 1006.31 1005.70 1005.88 1005.74 1005.92 1006.09 1006.72 1006.69 1006.76 1006.81 1006.76 1006.89 1006.46 1005.83 1005.23 1004.99 1005.10 1005.54 1005.23 1004.51 1003.84 1003.02 1001.74 1000.84 1000.11 999.65 998.69 997.77 997.36 996.83 996.51 996.40 996.28 996.35 996.40 996.58 996.87 995.81 995.48 995.22 995.34
1006.59 1005.98 1006.24 1005.77 1005.05 1005.41 1005.59 1005.82 1006.49 1006.58 1006.99 1007.09 1007.09 1006.91 1006.73 1006.29 1005.81 1005.29 1005.22 1005.74 1005.36 1004.90 1004.22 1003.35 1002.26 1001.23 1000.06 999.40 998.49 997.67 996.74 995.96 995.49 995.08 994.97 995.10 995.28 995.35 995.56 995.88 995.78 995.07 994.34 994.84
1005.68 1005.91 1005.70 1005.51 1005.27 1005.66 1005.41 1006.19 1006.53 1006.86 1007.06 1007.11 1007.07 1007.00 1006.76 1006.44 1005.99 1005.86 1006.02 1005.79 1005.45 1004.72 1003.83 1002.90 1001.91 1000.74 999.67 998.60 997.55 996.42 995.48 994.75 994.43 994.03 993.75 993.56 993.87 994.37 994.73 995.07 995.27 995.16 994.39 994.77
1005.41 1005.11 1005.68 1005.81 1006.39 1006.25 1005.82 1006.25 1006.74 1006.91 1007.06 1007.07 1006.97 1006.73 1006.69 1006.58 1006.11 1006.23 1006.50 1006.10 1005.53 1004.54 1003.50 1002.40 1001.54 1000.53 999.26 998.05 996.82 995.23 994.39 993.90 993.47 992.82 992.53 992.37 992.78 993.49 994.06 994.45 994.79 995.23 995.63 995.62
Thickness
5678 5676 5680 5697 5703 5706 5702 5701 5702 5713 5717 5702 5700 5703 5714 5723 5727 5728 5731 5733 5737 5738 5744 5746 5745 5743 5742 5743 5741 5740 5741 5743 5751 5748 5746 5742 5746 5750 5754 5757 5760 5759 5755 5750
5674 5669 5693 5699 5695 5686 5683 5682 5686 5699 5705 5695 5693 5695 5708 5715 5720 5724 5724 5726 5727 5731 5733 5735 5736 5737 5735 5734 5734 5732 5732 5734 5737 5742 5743 5744 5743 5749 5750 5752 5752 5755 5753 5750
5668 5683 5685 5681 5677 5671 5676 5675 5683 5683 5692 5692 5689 5689 5703 5719 5726 5726 5725 5722 5720 5716 5715 5719 5721 5722 5723 5722 5721 5722 5721 5722 5725 5731 5731 5732 5735 5736 5737 5742 5745 5746 5747 5743
5669 5684 5671 5670 5670 5675 5667 5690 5682 5675 5668 5666 5695 5667 5696 5710 5711 5714 5715 5710 5708 5709 5709 5709 5708 5705 5705 5705 5710 5710 5713 5711 5715 5716 5721 5722 5724 5725 5735 5736 5738 5740 5738 5736
5667 5666 5666 5662 5672 5678 5668 5678 5669 5667 5665 5667 5678 5674 5694 5711 5702 5701 5692 5693 5692 5693 5691 5687 5687 5688 5690 5689 5688 5690 5697 5701 5702 5702 5708 5714 5712 5721 5728 5729 5728 5729 5732 5729
5665 5677 5669 5669 5671 5668 5668 5660 5663 5668 5669 5654 5681 5682 5689 5695 5680 5669 5673 5671 5669 5669 5668 5668 5669 5669 5666 5668 5669 5671 5677 5683 5691 5692 5695 5698 5705 5708 5714 5718 5721 5722 5722 5723
5655 5661 5673 5670 5653 5666 5660 5649 5644 5653 5662 5658 5693 5666 5675 5681 5664 5653 5647 5648 5650 5651 5651 5649 5646 5645 5641 5641 5643 5647 5653 5662 5670 5678 5684 5689 5693 5698 5703 5707 5706 5716 5718 5715
5624 5631 5656 5657 5648 5645 5654 5651 5638 5617 5637 5659 5675 5648 5668 5662 5655 5641 5638 5632 5634 5629 5627 5623 5622 5621 5623 5622 5622 5629 5633 5639 5649 5659 5671 5681 5688 5691 5693 5699 5701 5708 5709 5711
5612 5614 5636 5636 5641 5641 5641 5629 5642 5621 5625 5617 5639 5660 5675 5662 5644 5630 5626 5623 5616 5615 5612 5611 5611 5610 5611 5608 5610 5616 5622 5629 5636 5644 5657 5668 5674 5677 5680 5690 5700 5705 5714 5707
5613 5598 5631 5632 5630 5632 5623 5636 5609 5620 5587 5600 5643 5644 5648 5643 5630 5629 5624 5616 5613 5613 5610 5605 5602 5602 5602 5603 5606 5608 5614 5620 5629 5635 5646 5657 5664 5669 5675 5685 5691 5706 5684 5702
5598 5591 5614 5616 5612 5613 5611 5611 5609 5609 5599 5577 5591 5627 5642 5623 5618 5615 5617 5616 5615 5611 5608 5602 5598 5600 5599 5599 5602 5602 5605 5608 5617 5626 5634 5644 5655 5663 5670 5670 5669 5676 5688 5685
5598 5586 5590 5599 5619 5621 5616 5611 5613 5589 5589 5599 5596 5602 5630 5616 5616 5614 5615 5615 5612 5608 5603 5598 5595 5592 5592 5593 5594 5593 5593 5599 5604 5612 5618 5628 5635 5648 5658 5649 5617 5624 5647 5664
5583 5581 5578 5586 5600 5606 5595 5603 5604 5603 5596 5583 5575 5592 5629 5627 5623 5621 5614 5611 5605 5598 5596 5592 5590 5588 5585 5583 5584 5583 5585 5588 5592 5596 5601 5608 5616 5625 5638 5641 5638 5640 5650 5657
5567 5576 5578 5580 5584 5587 5589 5596 5602 5600 5583 5586 5597 5606 5623 5623 5617 5613 5609 5602 5598 5595 5590 5584 5582 5581 5578 5574 5572 5572 5573 5576 5580 5584 5588 5593 5599 5611 5620 5629 5626 5633 5642 5647
5557 5559 5572 5580 5587 5590 5594 5599 5599 5593 5598 5589 5602 5604 5611 5612 5609 5606 5602 5597 5591 5586 5579 5573 5567 5565 5565 5565 5565 5564 5564 5565 5567 5571 5575 5578 5586 5592 5601 5614 5621 5628 5631 5639
5550 5549 5557 5555 5575 5584 5588 5594 5593 5595 5597 5596 5598 5599 5615 5613 5603 5598 5590 5581 5576 5571 5566 5561 5556 5552 5548 5545 5543 5544 5545 5549 5554 5557 5561 5568 5571 5577 5585 5593 5602 5610 5616 5625
5537 5543 5546 5550 5565 5581 5579 5587 5594 5599 5601 5600 5593 5603 5602 5598 5589 5581 5574 5566 5562 5559 5554 5542 5531 5523 5517 5514 5511 5512 5516 5521 5528 5536 5551 5558 5562 5563 5568 5577 5582 5593 5603 5612
5525 5535 5538 5545 5558 5555 5591 5594 5589 5584 5586 5587 5589 5592 5588 5580 5577 5573 5565 5558 5550 5540 5531 5521 5510 5503 5497 5494 5492 5490 5492 5495 5503 5507 5522 5540 5553 5560 5557 5559 5562 5573 5588 5593
5532 5529 5523 5537 5548 5571 5584 5572 5578 5570 5572 5579 5576 5570 5566 5565 5566 5571 5558 5544 5533 5524 5514 5505 5499 5494 5490 5487 5484 5482 5482 5484 5480 5487 5498 5512 5528 5541 5554 5551 5550 5553 5572 5577
5534 5537 5530 5535 5531 5545 5566 5564 5568 5567 5563 5561 5555 5554 5554 5555 5555 5562 5547 5536 5530 5516 5504 5498 5498 5495 5490 5486 5479 5478 5476 5474 5475 5470 5473 5489 5500 5517 5528 5543 5544 5546 5560 5564
5530 5531 5523 5528 5531 5551 5563 5563 5561 5548 5546 5548 5549 5549 5549 5543 5538 5541 5537 5534 5525 5510 5503 5499 5497 5495 5489 5480 5472 5471 5469 5472 5469 5468 5471 5474 5474 5498 5509 5519 5535 5543 5542 5555
5531 5525 5525 5532 5524 5530 5556 5555 5541 5544 5542 5542 5545 5542 5540 5535 5535 5533 5536 5529 5520 5507 5504 5499 5498 5494 5486 5476 5468 5465 5465 5464 5461 5461 5460 5464 5469 5468 5482 5501 5517 5534 5545 5549
5526 5530 5532 5541 5543 5546 5547 5542 5543 5536 5535 5536 5536 5535 5531 5533 5535 5536 5533 5525 5508 5503 5502 5498 5496 5495 5486 5479 5470 5468 5465 5456 5452 5450 5450 5452 5455 5460 5462 5471 5501 5522 5538 5550
5537 5549 5536 5542 5552 5544 5542 5540 5533 5533 5528 5529 5530 5531 5531 5531 5531 5532 5528 5509 5505 5504 5500 5499 5499 5494 5488 5480 5475 5469 5465 5460 5454 5449 5445 5443 5444 5449 5454 5458 5476 5504 5532 5541
5541 5539 5537 5539 5543 5536 5537 5528 5526 5525 5525 5526 5527 5527 5526 5525 5526 5523 5511 5505 5504 5503 5502 5501 5498 5495 5489 5483 5479 5479 5475 5469 5458 5451 5447 5447 5443 5440 5445 5453 5463 5482 5515 5528
5538 5539 5528 5525 5523 5522 5527 5525 5522 5520 5520 5523 5523 5525 5522 5520 5523 5518 5502 5502 5502 5504 5505 5505 5499 5494 5493 5487 5483 5489 5485 5477 5464 5459 5451 5449 5444 5437 5441 5451 5460 5466 5479 5496